This demonstration page uses our WeatherBlox Daily Observations layout. Learn more.

Left ArrowRight Arrow

Hourly Observations for April 10, 2019

Temp ( °F °C ) Dew Point ( °F °C ) Humidity (%) Winds ( mph kmh ) Pressure ( in mb ) Visibility ( mi km ) Precip ( " mm )
12:01 am 00:01 Clear 59 15 59 15 100 100 Calm 29.77 1008 10 16 0.00 0.00
12:22 am 00:22 Mostly Clear with Mist and Fog 59 15 59 15 100 100 Calm 29.78 1009 2 2 0.00 0.00
12:25 am 00:25 Mostly Cloudy with Mist and Fog 58 14.4 58 14.4 100 100 Calm 29.79 1009 1 1 0.00 0.00
12:32 am 00:32 Mostly Cloudy with Light Rain 57 13.9 57 13.9 100 100 Calm 29.79 1009 1 1 0.00 0.03
12:37 am 00:37 Mostly Cloudy with Light Rain 57 13.9 57 13.9 100 100 Calm 29.79 1009 1 1 0.00 0.03
12:41 am 00:41 Mostly Cloudy with Fog 57 13.9 57 13.9 100 100 Calm 29.79 1009 1 1 0.00 0.03
12:48 am 00:48 Mostly Cloudy with Fog 57 14 57 14 100 100 Calm 29.79 1009 1 1 0.00 0.03
12:53 am 00:53 Mostly Cloudy with Fog 57 13.9 57 13.9 100 100 Calm 29.77 1008 1 1 0.00 0.03
1:00 am 01:00 Mostly Cloudy with Mist and Fog 58 14.4 58 14.4 100 100 Calm 29.79 1009 1 2 0.00 0.00
1:03 am 01:03 Partly Cloudy with Mist and Fog 58 14.4 58 14.4 100 100 Calm 29.79 1009 5 8 0.00 0.00
1:18 am 01:18 Mostly Clear with Mist and Fog 57 13.9 57 13.9 100 100 Calm 29.79 1009 2 3 0.00 0.00
1:23 am 01:23 Mostly Cloudy with Mist and Fog 57 13.9 57 13.9 100 100 Calm 29.79 1009 1 1 0.00 0.00
1:34 am 01:34 Mostly Clear with Mist and Fog 57 13.9 57 13.9 100 100 Calm 29.79 1009 1 2 0.00 0.00
1:39 am 01:39 Mostly Clear with Mist and Fog 57 13.9 57 13.9 100 100 Calm 29.79 1009 3 5 0.00 0.00
1:50 am 01:50 Mostly Clear with Mist and Fog 55 13 55 13 100 100 Calm 29.79 1009 2 3 0.00 0.00
1:53 am 01:53 Mostly Cloudy with Mist and Fog 56 13.3 56 13.3 100 100 Calm 29.78 1008 1 2 0.00 0.00
2:00 am 02:00 Clear with Mist and Fog 56 13.3 56 13.3 100 100 Calm 29.79 1009 1 2 0.00 0.00
2:04 am 02:04 Clear with Mist and Fog 56 13.3 56 13.3 100 100 Calm 29.79 1009 3 5 0.00 0.00
2:09 am 02:09 Clear with Mist and Fog 56 13.3 56 13.3 100 100 Calm 29.79 1009 2 3 0.00 0.00
2:17 am 02:17 Clear with Fog 56 13.3 56 13.3 100 100 Calm 29.79 1009 1 1 0.00 0.00
2:22 am 02:22 Clear with Mist and Fog 56 13.3 56 13.3 100 100 Calm 29.79 1009 1 2 0.00 0.00
2:27 am 02:27 Clear with Mist and Fog 57 13.9 57 13.9 100 100 Calm 29.79 1009 4 6 0.00 0.00
2:33 am 02:33 Mostly Clear with Mist and Fog 55 12.8 55 12.8 100 100 Calm 29.79 1009 1 2 0.00 0.00
2:35 am 02:35 Mostly Cloudy with Mist and Fog 55 12.8 55 12.8 100 100 Calm 29.79 1009 1 1 0.00 0.00
2:43 am 02:43 Mostly Cloudy with Fog 54 12.2 54 12.2 100 100 Calm 29.79 1009 1 1 0.00 0.00
2:53 am 02:53 Mostly Cloudy with Mist and Fog 55 12.8 55 12.8 100 100 Calm 29.77 1008 1 1 0.00 0.00
2:58 am 02:58 Mostly Cloudy with Mist and Fog 55 12.8 55 12.8 100 100 Calm 29.79 1009 2 3 0.00 0.00
3:02 am 03:02 Partly Cloudy with Mist and Fog 55 12.8 55 12.8 100 100 Calm 29.79 1009 5 8 0.00 0.00
3:06 am 03:06 Partly Cloudy with Mist and Fog 55 12.8 55 12.8 100 100 Calm 29.79 1009 2 3 0.00 0.00
3:09 am 03:09 Mostly Cloudy with Mist and Fog 55 12.8 55 12.8 100 100 Calm 29.79 1009 1 1 0.00 0.00
3:16 am 03:16 Mostly Cloudy with Fog 54 12.2 54 12.2 100 100 Calm 29.79 1009 1 1 0.00 0.00
3:53 am 03:53 Mostly Cloudy with Fog 53 11.7 53 11.7 100 100 Calm 29.77 1008 0 0 0.00 0.03
4:02 am 04:02 Mostly Cloudy with Fog 53 11.7 53 11.7 100 100 Calm 29.79 1009 1 1 0.00 0.00
4:21 am 04:21 Mostly Cloudy with Mist and Fog 54 12.2 54 12.2 100 100 Calm 29.79 1009 1 2 0.00 0.00
4:28 am 04:28 Mostly Cloudy with Mist and Fog 54 12.2 54 12.2 100 100 Calm 29.79 1009 3 5 0.00 0.00
4:35 am 04:35 Mostly Cloudy with Mist and Fog 55 12.8 55 12.8 100 100 Calm 29.79 1009 2 3 0.00 0.00
4:53 am 04:53 Mostly Cloudy with Mist and Fog 53 11.7 53 11.7 100 100 Calm 29.78 1008 1 1 0.00 0.00
5:01 am 05:01 Mostly Cloudy with Fog 53 11.7 53 11.7 100 100 Calm 29.79 1009 1 1 0.00 0.00
5:17 am 05:17 Mostly Cloudy with Mist and Fog 53 11.7 53 11.7 100 100 Calm 29.80 1009 1 1 0.00 0.00
5:26 am 05:26 Mostly Cloudy with Mist and Fog 53 11.7 53 11.7 100 100 Calm 29.80 1009 2 3 0.00 0.00
5:33 am 05:33 Partly Cloudy with Light Rain 53 11.7 53 11.7 100 100 Calm 29.80 1009 6 10 0.00 0.03
5:53 am 05:53 Clear with Light Rain 54 12.2 54 12.2 100 100 Calm 29.78 1009 10 16 0.00 0.03
6:53 am 06:53 Clear 53 11.7 53 11.7 100 100 Calm 29.81 1010 7 11 0.00 0.03
7:53 am 07:53 Sunny 54 12.2 54 12.2 100 100 Calm 29.83 1010 10 16 0.00 0.03
8:53 am 08:53 Sunny with Light Rain 59 15 58 14.4 96 96 Calm 29.84 1011 10 16 0.00 0.03
9:53 am 09:53 Sunny 66 18.9 61 16.1 84 84 NE 3 6 29.85 1011 10 16 0.00 0.03
10:53 am 10:53 Sunny 71 21.7 61 16.1 71 71 E 5 7 29.86 1011 10 16 0.00 0.00
11:53 am 11:53 Sunny 75 23.9 58 14.4 55 55 Calm 29.87 1011 10 16 0.00 0.00
12:53 pm 12:53 Sunny 77 25 57 13.9 50 50 NNE 5 7 29.84 1011 10 16 0.00 0.00
1:53 pm 13:53 Mostly Sunny 79 26.1 56 13.3 45 45 Calm 29.82 1010 10 16 0.00 0.00
2:53 pm 14:53 Mostly Sunny 80 26.7 54 12.2 41 41 VRB 3 6 29.80 1009 10 16 0.00 0.00
3:53 pm 15:53 Sunny 81 27.2 55 12.8 41 41 Calm 29.78 1009 10 16 0.00 0.00
4:53 pm 16:53 Sunny 82 27.8 52 11.1 35 35 SSW 8 13 29.77 1008 10 16 0.00 0.00
5:53 pm 17:53 Sunny 82 27.8 52 11.1 35 35 VRB 5 7 29.78 1008 10 16 0.00 0.00
6:53 pm 18:53 Sunny 81 27.2 52 11.1 37 37 SSE 5 7 29.78 1008 10 16 0.00 0.00
7:53 pm 19:53 Sunny 80 26.7 53 11.7 39 39 S 5 7 29.79 1009 10 16 0.00 0.00
8:53 pm 20:53 Clear 73 22.8 56 13.3 55 55 SSE 5 7 29.80 1009 10 16 0.00 0.00
9:53 pm 21:53 Clear 67 19.4 58 14.4 73 73 Calm 29.83 1010 10 16 0.00 0.00
10:53 pm 22:53 Clear 64 17.8 59 15 84 84 Calm 29.84 1011 10 16 0.00 0.00
11:53 pm 23:53 Clear 60 15.6 58 14.4 93 93 Calm 29.84 1011 10 16 0.00 0.00

Powered by AerisWeather